Wind_Speed
3 2 2 2 3 4 5 7 8 9 9 9 10 11 12 12 12 11 11 11 11 10 10 10 10 11 11 11 11 10 10 10 10 10 10 9 9 9 9 9 8 7 6 5 5 5 4 3 2
4 3 2 2 2 3 5 6 7 8 8 9 9 10 11 12 11 11 11 11 11 10 10 10 10 11 11 11 11 11 10 10 10 10 9 9 9 9 9 9 8 8 7 6 5 5 4 3 3
4 4 3 2 2 3 4 5 5 6 7 8 10 10 11 11 11 11 11 11 11 10 10 10 10 11 11 11 11 10 10 10 10 10 9 9 9 8 8 9 9 8 7 6 6 5 5 4 3
5 4 3 2 1 1 3 4 4 5 7 8 9 10 10 11 11 10 10 10 10 10 10 10 10 10 11 11 11 10 10 10 10 10 10 9 9 8 8 8 8 8 7 6 6 5 5 4 4
7 5 4 3 2 1 1 3 4 5 7 8 9 9 9 10 11 10 10 9 9 9 10 10 10 10 11 11 10 10 10 9 10 10 10 10 9 9 8 8 8 7 7 7 6 6 5 4 3
8 7 6 5 3 2 1 2 3 5 7 8 9 9 9 10 10 10 9 9 9 9 10 10 10 10 10 10 10 9 9 9 9 9 9 10 9 9 8 8 7 7 7 8 7 6 6 4 4
9 8 7 6 5 3 1 1 2 5 6 8 9 9 9 9 9 9 9 9 9 9 9 10 10 10 10 9 9 9 8 8 8 8 9 9 9 9 8 8 7 7 7 7 8 7 6 5 4
11 9 8 7 6 5 2 1 2 4 6 7 8 8 8 9 9 9 9 9 8 9 9 9 9 9 9 9 9 9 8 8 8 7 8 8 9 9 8 8 8 7 7 7 7 7 6 5 4
12 11 10 8 8 6 4 2 2 4 5 6 7 8 9 9 9 9 9 9 9 9 9 9 9 9 9 9 9 9 9 8 8 8 7 8 8 8 8 8 8 8 7 7 7 7 6 5 5
14 12 11 10 9 7 6 4 3 4 5 5 6 8 9 9 9 10 10 9 9 9 9 9 9 9 9 9 9 9 9 9 9 8 8 8 7 8 8 8 8 7 7 7 7 7 6 5 5
14 13 12 11 10 8 8 6 4 3 3 5 6 8 9 9 9 9 10 9 9 8 8 8 8 9 9 9 9 9 9 10 9 8 8 8 7 7 7 7 7 7 7 7 7 7 6 5 5
14 14 13 12 10 9 8 6 5 4 5 6 6 7 8 8 9 9 9 9 9 8 8 8 8 8 9 10 9 9 9 9 9 8 8 8 7 7 7 7 7 7 7 7 7 7 6 5 5
15 14 13 11 10 9 8 7 7 6 6 6 6 7 7 7 8 9 8 8 8 8 8 8 8 8 9 9 9 9 9 9 9 9 8 8 7 7 7 7 7 7 7 7 7 7 5 5 5
15 13 13 12 11 10 9 8 8 7 6 7 7 7 7 8 9 9 8 8 8 8 7 8 8 8 8 8 9 9 9 8 9 9 8 7 7 7 7 7 7 7 7 7 7 7 5 5 5
16 14 14 13 12 11 10 9 9 9 8 8 8 8 7 8 8 9 8 8 8 8 7 7 8 7 8 8 8 8 8 8 8 8 8 7 7 7 7 7 6 7 7 7 7 7 6 5 6
17 16 15 15 15 13 12 11 10 11 10 9 8 8 8 8 8 8 9 9 9 8 8 7 7 8 8 8 8 8 8 8 8 7 7 7 8 8 7 7 6 7 7 7 7 7 7 6 6
19 18 17 17 17 16 14 13 12 12 11 10 9 9 8 8 8 8 8 9 9 9 9 8 8 8 8 8 8 8 8 8 8 7 7 8 8 8 7 7 7 7 7 7 7 7 7 8 8
20 19 18 18 18 17 15 14 14 12 11 10 10 9 9 9 9 8 8 8 8 9 9 10 8 8 8 8 9 9 9 9 9 9 8 8 8 8 8 8 8 8 8 8 8 8 8 9 9
21 20 18 17 18 18 16 15 15 13 11 10 10 9 9 9 9 9 8 8 8 9 10 10 8 8 9 9 9 10 10 11 10 10 9 9 8 8 9 8 8 8 9 9 8 8 9 9 9
21 20 18 17 17 18 17 16 15 13 11 10 10 10 10 9 9 9 9 9 9 10 10 10 8 8 9 10 11 12 10 10 11 10 10 10 9 9 9 8 9 9 9 9 9 9 10 10 9
22 20 18 17 17 18 17 16 15 13 12 11 11 11 10 9 10 10 10 9 9 9 9 9 8 9 10 11 12 11 9 10 10 10 11 10 10 10 9 9 9 10 10 10 10 10 10 10 10
21 19 20 19 18 18 18 17 15 14 12 12 12 11 11 10 11 12 11 10 9 9 9 9 9 10 11 11 11 11 11 10 10 11 12 12 12 11 10 10 10 10 10 10 10 10 10 10 11
20 21 20 20 20 20 19 18 15 14 14 13 12 13 12 12 13 13 12 11 10 10 10 9 10 11 11 11 11 12 12 11 11 12 12 12 12 11 11 11 11 11 11 11 11 11 11 11 11
21 22 22 21 21 21 19 19 15 14 14 14 14 14 14 14 13 13 13 11 11 11 11 11 11 12 13 13 13 12 12 13 12 12 12 12 12 12 12 12 12 12 12 12 12 12 12 12 12
22 23 23 23 23 22 20 19 15 14 15 16 17 16 14 13 13 13 13 12 12 12 12 13 12 13 13 14 14 13 12 12 13 13 13 13 13 13 13 13 13 13 13 13 13 13 13 13 13
22 23 24 24 24 22 21 20 16 15 15 16 17 16 15 14 13 13 13 13 13 13 14 15 15 14 13 14 13 13 13 13 14 14 14 14 13 13 14 14 15 15 14 14 14 14 14 14 14
24 24 24 25 25 25 24 22 18 16 16 16 16 15 15 15 15 15 15 15 15 15 15 15 16 16 15 14 13 13 13 14 15 15 15 14 14 14 14 15 16 16 15 15 14 15 14 15 15
25 25 26 26 26 26 25 22 20 18 17 17 17 17 15 15 16 16 16 16 16 16 16 16 16 16 16 15 14 14 14 15 16 16 16 17 16 15 15 16 16 16 16 15 15 16 16 16 16
26 26 26 27 27 27 26 23 19 18 19 19 18 17 17 17 16 16 16 16 16 16 17 16 16 16 16 16 16 16 16 17 17 17 18 18 16 16 16 16 16 16 16 16 16 16 16 16 17
27 27 27 27 27 27 27 23 20 19 19 20 19 19 18 18 18 17 17 17 17 17 18 17 16 16 17 17 17 18 18 18 18 18 17 17 17 16 17 17 16 16 16 16 17 16 17 17 18
Wind_Direction
174 154 127 101 77 63 53 56 55 56 51 40 36 33 30 28 26 25 25 24 23 21 18 19 24 27 29 29 29 30 29 25 23 22 21 20 23 26 26 22 17 11 7 3 356 349 343 335 323
191 183 165 136 84 68 53 52 53 49 39 30 28 27 26 25 23 23 23 22 18 18 18 22 25 26 27 28 28 29 29 27 25 23 22 22 24 25 25 22 19 15 11 10 4 356 350 339 329
196 197 187 152 98 60 55 53 57 46 35 29 25 22 21 21 21 19 20 19 15 16 19 23 25 26 27 28 28 31 33 29 27 24 23 23 22 21 23 21 20 16 14 16 8 1 355 342 331
205 205 200 181 164 90 61 51 54 40 33 24 18 17 14 14 14 14 16 14 14 15 19 22 23 24 25 25 26 30 31 31 30 26 24 21 18 16 15 13 16 14 13 13 4 357 350 342 333
212 203 200 192 203 238 24 48 52 36 30 23 16 14 12 10 10 10 13 14 15 16 20 22 24 24 23 24 24 27 28 29 30 28 23 20 17 14 12 9 9 11 10 9 1 355 348 340 335
215 212 215 207 211 236 303 11 32 30 23 17 12 11 11 10 8 7 9 12 15 17 19 22 23 22 22 23 24 25 27 26 26 25 23 19 16 13 11 9 10 13 6 1 357 350 344 338 330
215 219 224 216 217 228 276 346 2 1 5 9 12 10 12 12 7 6 7 9 12 16 16 18 20 20 20 22 24 23 24 22 21 22 22 20 17 15 13 10 13 11 2 358 350 346 349 339 324
217 218 226 223 223 230 250 315 340 350 358 5 10 13 12 8 3 0 1 3 8 13 17 18 19 20 19 20 19 19 21 19 15 13 14 15 13 12 12 12 12 11 5 2 357 351 351 343 327
223 221 225 231 235 236 244 270 317 343 349 359 4 9 8 360 356 357 359 1 5 9 13 15 18 20 20 19 16 15 16 14 11 9 7 8 9 7 7 8 8 8 3 359 357 351 348 342 340
227 225 226 231 239 245 255 268 297 331 341 351 0 5 2 358 357 357 357 356 358 3 8 13 18 18 15 15 15 15 12 9 8 7 4 2 4 5 5 4 2 2 0 359 356 348 346 340 341
227 225 228 232 240 246 256 265 284 304 322 341 354 0 2 358 357 355 355 353 352 355 0 8 11 13 11 12 12 10 9 9 8 6 2 1 0 359 359 357 353 351 352 351 352 350 356 347 336
228 228 233 236 245 247 255 265 278 291 302 319 339 351 354 357 352 347 349 349 349 350 354 358 2 6 6 7 8 6 6 8 10 8 4 2 359 356 351 348 346 344 343 344 345 349 352 350 339
230 229 231 236 247 250 254 258 269 284 293 308 326 337 341 344 342 342 341 345 348 349 353 353 358 1 1 3 4 2 3 5 5 3 359 358 357 351 345 341 339 340 339 340 341 340 342 344 341
231 232 233 236 244 248 250 255 268 281 294 303 314 324 331 335 336 335 341 340 339 340 342 342 346 349 350 355 358 357 358 1 0 359 358 354 350 346 341 338 338 338 335 331 331 335 334 334 332
232 235 235 239 244 246 250 255 266 274 285 292 300 313 324 329 331 333 335 339 335 331 331 331 336 337 338 345 348 350 351 353 352 352 355 354 348 343 341 341 342 341 337 330 327 329 331 330 331
233 235 235 238 242 246 251 257 267 273 273 282 291 302 312 321 326 329 333 332 329 325 321 323 322 326 330 336 334 339 343 344 343 343 346 346 345 341 337 336 330 332 333 332 328 326 328 329 330
236 238 238 238 243 249 253 254 263 271 270 276 282 292 297 309 318 320 329 332 328 324 322 324 328 327 328 328 324 329 330 332 335 333 334 335 332 331 328 322 320 324 328 329 324 322 324 323 322
238 239 239 238 243 249 252 254 261 264 267 271 276 283 289 299 308 313 322 326 325 327 328 329 328 327 328 324 320 319 318 320 322 322 325 326 327 326 323 319 318 319 319 319 319 319 319 317 316
238 239 238 238 243 248 248 252 258 260 262 265 271 278 287 296 302 304 311 318 321 325 330 333 337 328 326 324 320 314 309 311 313 314 323 321 322 320 317 317 317 316 316 317 320 320 320 314 313
237 238 237 236 241 247 248 249 252 252 253 259 266 272 282 286 291 297 300 303 310 316 320 323 321 326 324 322 320 313 301 308 305 303 309 313 313 314 311 309 313 315 315 313 312 317 320 317 314
237 236 236 238 244 251 253 249 248 250 254 259 265 272 275 282 285 289 292 292 299 306 312 316 316 322 322 320 321 314 306 312 313 308 306 310 311 311 308 306 310 314 313 312 314 316 315 315 315
235 234 235 237 242 248 251 252 249 251 257 264 265 269 274 280 287 288 285 284 290 295 300 304 304 316 318 316 318 319 314 309 308 308 306 307 308 307 304 304 307 309 310 310 311 314 313 313 311
235 233 234 238 243 247 250 253 252 254 258 263 262 267 273 278 284 282 280 279 284 288 291 296 303 309 310 313 316 315 316 312 307 306 304 303 305 302 299 296 299 303 303 304 306 310 311 311 310
230 230 234 239 244 249 252 257 258 259 260 259 261 265 271 276 279 273 273 277 284 286 286 292 301 303 304 308 313 309 308 306 306 306 301 298 299 300 298 298 298 300 300 301 302 306 307 306 308
231 232 235 238 244 250 254 258 263 263 262 261 261 261 266 272 271 270 273 278 283 285 286 292 293 292 295 300 303 304 302 302 302 303 296 297 296 296 296 298 300 299 298 297 298 300 303 302 302
234 236 239 243 248 252 253 257 263 265 266 266 266 263 262 264 265 267 273 276 281 284 287 286 287 284 292 298 302 302 298 300 300 298 294 294 293 291 292 296 297 298 298 297 297 300 298 297 298
234 237 241 245 249 252 253 257 259 263 267 271 268 267 264 261 263 265 268 275 278 282 285 283 285 282 289 296 299 299 298 297 297 295 294 292 292 287 290 294 294 296 297 296 297 300 297 298 298
234 237 241 245 248 252 256 260 263 264 265 264 267 266 265 266 266 267 271 274 276 280 284 288 288 284 286 292 294 294 295 296 295 293 291 291 292 289 289 293 295 294 294 294 297 299 297 298 298
234 237 240 245 249 253 258 262 265 266 267 267 266 266 268 268 268 270 272 272 274 279 283 284 288 285 287 291 291 291 291 294 295 293 290 289 290 290 289 290 291 292 293 292 292 294 294 296 296
236 239 241 244 249 254 260 263 264 264 266 269 267 266 269 270 268 270 272 273 275 280 285 283 283 285 288 288 287 288 288 292 293 293 291 287 286 288 289 289 289 289 289 288 289 292 292 293 294
Height
5892 5893 5893 5894 5895 5894 5893 5893 5892 5892 5891 5891 5890 5890 5889 5889 5889 5889 5886 5884 5883 5882 5881 5879 5878 5877 5875 5874 5873 5872 5872 5871 5871 5870 5870 5869 5868 5867 5866 5865 5865 5864 5863 5863 5863 5862 5862 5862 5862
5892 5893 5895 5895 5895 5894 5894 5894 5893 5893 5893 5892 5891 5890 5889 5889 5888 5887 5886 5884 5884 5883 5881 5880 5878 5877 5876 5875 5873 5872 5872 5871 5871 5870 5870 5869 5868 5867 5866 5865 5865 5864 5863 5863 5862 5862 5862 5862 5861
5893 5894 5896 5895 5895 5895 5895 5894 5894 5894 5893 5892 5892 5891 5890 5889 5889 5887 5886 5885 5884 5883 5882 5880 5879 5877 5876 5875 5874 5873 5872 5872 5871 5870 5870 5869 5868 5867 5866 5866 5865 5864 5863 5863 5862 5862 5861 5861 5861
5893 5894 5895 5896 5895 5895 5895 5895 5895 5894 5894 5893 5892 5892 5891 5890 5889 5888 5887 5886 5885 5883 5882 5880 5879 5878 5876 5875 5874 5873 5873 5872 5871 5871 5870 5869 5868 5867 5867 5866 5865 5864 5863 5863 5862 5862 5861 5861 5860
5893 5894 5895 5895 5895 5896 5895 5895 5895 5894 5894 5894 5893 5892 5891 5891 5890 5889 5887 5886 5885 5884 5882 5881 5879 5878 5877 5876 5875 5874 5873 5872 5872 5871 5870 5869 5868 5867 5867 5866 5865 5864 5863 5863 5862 5861 5861 5860 5860
5893 5894 5895 5895 5895 5895 5895 5895 5895 5895 5894 5894 5893 5893 5892 5891 5890 5889 5888 5887 5885 5884 5882 5881 5880 5878 5877 5876 5875 5874 5874 5873 5872 5871 5870 5869 5868 5867 5867 5866 5865 5864 5863 5862 5862 5861 5860 5860 5859
5893 5893 5894 5894 5895 5895 5896 5895 5895 5895 5894 5894 5894 5893 5892 5892 5891 5890 5888 5887 5886 5884 5883 5881 5880 5879 5878 5877 5876 5875 5874 5873 5872 5871 5870 5869 5869 5868 5867 5866 5865 5864 5863 5862 5861 5860 5860 5859 5859
5891 5893 5893 5894 5894 5895 5895 5895 5895 5895 5895 5894 5894 5893 5892 5892 5891 5890 5889 5887 5886 5885 5883 5882 5880 5879 5878 5877 5876 5875 5874 5873 5872 5871 5870 5869 5868 5868 5867 5865 5864 5864 5863 5862 5861 5860 5859 5858 5858
5890 5893 5892 5893 5893 5894 5894 5895 5895 5894 5894 5894 5893 5893 5893 5892 5891 5890 5889 5888 5886 5885 5883 5882 5881 5880 5878 5877 5876 5875 5874 5873 5872 5871 5870 5869 5868 5867 5866 5865 5864 5863 5862 5862 5861 5859 5858 5858 5857
5889 5890 5891 5892 5892 5893 5894 5894 5894 5894 5894 5894 5893 5893 5892 5891 5890 5890 5889 5888 5887 5885 5884 5882 5881 5880 5879 5877 5876 5875 5874 5873 5872 5871 5870 5869 5868 5867 5866 5865 5864 5863 5862 5861 5860 5859 5858 5857 5857
5887 5889 5890 5891 5891 5892 5892 5893 5893 5893 5893 5894 5893 5893 5892 5891 5890 5889 5888 5887 5886 5885 5884 5882 5881 5880 5879 5877 5876 5875 5874 5873 5872 5870 5869 5868 5867 5866 5865 5864 5864 5863 5862 5861 5860 5859 5857 5857 5856
5886 5887 5888 5889 5890 5890 5891 5892 5892 5893 5893 5893 5893 5892 5892 5891 5890 5889 5888 5887 5886 5885 5884 5882 5881 5880 5879 5877 5876 5875 5874 5873 5871 5870 5869 5868 5867 5866 5865 5864 5863 5862 5861 5860 5859 5858 5857 5856 5856
5884 5885 5887 5888 5889 5889 5890 5890 5891 5891 5892 5892 5891 5891 5891 5890 5889 5889 5888 5886 5886 5884 5883 5882 5881 5880 5879 5877 5876 5875 5874 5873 5871 5870 5869 5868 5867 5865 5864 5863 5862 5861 5860 5860 5859 5858 5857 5856 5855
5882 5884 5885 5887 5887 5888 5888 5889 5890 5890 5890 5890 5890 5891 5890 5890 5889 5888 5887 5886 5885 5884 5883 5881 5880 5879 5878 5877 5876 5875 5873 5872 5871 5870 5868 5867 5866 5865 5864 5863 5862 5861 5860 5859 5858 5857 5856 5856 5855
5880 5882 5884 5885 5885 5886 5887 5887 5888 5888 5889 5889 5889 5889 5889 5888 5887 5887 5886 5885 5884 5883 5882 5881 5879 5878 5877 5876 5875 5874 5873 5872 5871 5869 5868 5867 5865 5864 5863 5862 5861 5860 5859 5858 5857 5857 5856 5855 5854
5877 5880 5881 5883 5883 5883 5886 5886 5886 5886 5887 5887 5887 5887 5887 5887 5886 5885 5885 5884 5883 5882 5880 5879 5878 5877 5876 5875 5875 5873 5872 5871 5870 5868 5867 5866 5865 5863 5862 5861 5860 5860 5859 5858 5857 5856 5855 5854 5853
5874 5876 5878 5880 5880 5881 5882 5883 5884 5884 5884 5885 5885 5885 5885 5885 5885 5884 5883 5882 5881 5880 5879 5878 5876 5876 5875 5874 5873 5872 5871 5870 5869 5867 5866 5865 5864 5862 5862 5861 5860 5859 5858 5857 5856 5855 5854 5853 5852
5871 5873 5875 5877 5877 5878 5879 5880 5881 5881 5882 5882 5883 5883 5883 5883 5883 5882 5881 5880 5880 5879 5878 5876 5875 5874 5873 5872 5871 5870 5869 5868 5867 5866 5865 5864 5863 5861 5861 5860 5858 5857 5856 5855 5854 5853 5852 5851 5850
5868 5870 5872 5874 5874 5875 5876 5877 5879 5879 5880 5880 5880 5880 5881 5880 5880 5880 5879 5879 5878 5877 5876 5875 5874 5873 5871 5870 5869 5869 5867 5866 5865 5864 5863 5862 5861 5860 5859 5858 5857 5856 5855 5854 5853 5852 5851 5850 5849
5864 5866 5869 5871 5871 5872 5873 5874 5875 5876 5877 5878 5878 5878 5878 5878 5878 5877 5877 5877 5876 5875 5874 5873 5872 5871 5870 5869 5867 5866 5865 5864 5863 5862 5862 5860 5859 5858 5857 5857 5856 5855 5854 5853 5852 5851 5850 5848 5847
5860 5863 5865 5867 5868 5869 5870 5872 5873 5873 5874 5875 5876 5876 5876 5876 5875 5875 5875 5874 5874 5874 5872 5871 5870 5869 5869 5867 5866 5863 5862 5862 5861 5861 5860 5859 5857 5857 5856 5855 5854 5853 5852 5851 5850 5849 5848 5847 5846
5857 5860 5862 5863 5864 5865 5867 5868 5870 5871 5872 5873 5873 5873 5874 5874 5873 5873 5872 5872 5872 5871 5870 5869 5868 5867 5866 5865 5864 5862 5861 5860 5859 5859 5858 5857 5855 5854 5854 5853 5852 5851 5850 5849 5848 5847 5846 5845 5844
5854 5856 5858 5859 5860 5862 5863 5865 5868 5868 5869 5870 5870 5871 5871 5871 5870 5870 5870 5869 5869 5868 5867 5867 5866 5865 5864 5862 5861 5861 5859 5858 5857 5856 5855 5854 5853 5852 5852 5851 5850 5849 5848 5847 5846 5845 5844 5842 5841
5850 5852 5854 5855 5857 5859 5861 5862 5864 5865 5866 5866 5867 5868 5868 5867 5867 5867 5867 5867 5867 5866 5865 5865 5864 5863 5862 5860 5859 5858 5857 5856 5855 5854 5853 5852 5850 5850 5849 5848 5847 5846 5845 5844 5843 5842 5841 5840 5838
5846 5848 5850 5851 5853 5855 5858 5858 5861 5862 5862 5862 5863 5864 5864 5864 5864 5864 5864 5864 5864 5863 5862 5862 5861 5860 5859 5858 5857 5855 5854 5853 5852 5851 5850 5848 5847 5846 5846 5845 5844 5843 5842 5841 5841 5839 5838 5837 5836
5842 5845 5847 5849 5850 5852 5854 5854 5859 5858 5858 5858 5859 5859 5860 5860 5861 5860 5860 5861 5860 5860 5859 5858 5857 5856 5855 5854 5853 5852 5851 5850 5849 5848 5846 5845 5844 5843 5843 5842 5841 5840 5839 5838 5837 5836 5835 5834 5833
5837 5840 5843 5845 5846 5847 5849 5851 5854 5854 5854 5854 5855 5855 5856 5856 5857 5857 5856 5856 5856 5856 5855 5854 5853 5852 5851 5851 5850 5849 5848 5847 5846 5844 5843 5842 5841 5840 5839 5839 5838 5836 5836 5835 5834 5833 5831 5830 5829
5833 5836 5838 5839 5841 5842 5844 5846 5849 5850 5850 5851 5851 5851 5851 5852 5852 5853 5852 5852 5852 5852 5851 5850 5849 5848 5848 5847 5846 5845 5844 5843 5842 5841 5840 5839 5838 5837 5836 5835 5834 5833 5832 5831 5830 5829 5828 5826 5825
5828 5831 5832 5834 5836 5838 5839 5844 5844 5845 5846 5846 5847 5847 5847 5847 5848 5848 5848 5848 5848 5847 5846 5845 5845 5844 5843 5843 5842 5841 5840 5839 5838 5837 5836 5835 5834 5833 5832 5831 5830 5829 5828 5827 5826 5825 5824 5822 5821
5823 5825 5828 5830 5831 5833 5834 5840 5839 5840 5841 5841 5842 5842 5842 5843 5843 5843 5843 5843 5843 5842 5841 5841 5840 5840 5839 5838 5838 5836 5835 5834 5833 5832 5831 5830 5830 5829 5828 5827 5826 5825 5824 5823 5822 5821 5819 5818 5816